JILIN-01 GAOFEN 3D 33 (52450 NORAD) Tracking and Keplerian Element Data

This shows tracking and keplerian element data for the satellite.

Feedback or suggestion? Click here.




ElementValue
Catalog52450
NameJILIN-01 GAOFEN 3D 33
Epoch Orbit1029
Epoch Day193.21133382
Epoch Year2022
RAAN257.9992
Inclination97.679
Eccentricity0.0015572
Argument of Perigee54.695
Mean Anonmoly30.4253
Mean Motion15.10617474
Decay Rate2.923E-05
L11 52450U 22048H 22193.21133382 .00002923 00000+0 18040-3 0 9993
L22 52450 97.6790 257.9992 0015572 54.6950 30.4253 15.10617474 10293

Live tracking and technical data element details for JILIN-01 GAOFEN 3D 33 (NORAD 52450). JILIN-01 GAOFEN 3D 33 can be tracked NOW for your location showing map with azimuth and elevation plus other details from your city location.

Track the satellite on the map from your city or location and see movement details for azimuth, elevation, latitude, longitude, range, height, and movement on the map or in text.







IsCatalogInMostPopularTable: catalog: 52450, numindb: 11
Update: records affected: 1



GetName: 52450 JILIN-01 GAOFEN 3D 33

Hit Count: updated at: Sun, 14 Aug 2022 01:13:15 GMT